Regional Weather Roundup
Issued by NWS Charleston, SC

Current Version | Previous Version | Text Only | Print | Product List | Glossary Off
Versions: 1 2 3 4 5 6 7 8 9 10 11 12 13 14 15 16 17 18 19 20 21 22 23 24 25 26 27 28 29 30 31 32 33 34 35 36 37 38 39 40 41 42 43 44 45 46 47 48 49 50

000
ASUS42 KCHS 261812
RWRCHS

REGIONAL WEATHER ROUNDUP
NATIONAL WEATHER SERVICE CHARLESTON SC
200 PM EDT SUN APR 26 2015

NOTE: "FAIR" INDICATES FEW OR NO CLOUDS BELOW 12,000 FEET WITH NO
SIGNIFICANT WEATHER AND/OR OBSTRUCTIONS TO VISIBILITY.

NOT ALL STATIONS ARE QUALITY CONTROLLED BY THE NATIONAL
WEATHER SERVICE. USE DATA WITH CAUTION...ESPECIALLY
DEWPOINT OBSERVATIONS.

SCZ027-030-031-034>040-042>050-261900-
...SOUTHEAST SOUTH CAROLINA...

CITY           SKY/WX    TMP DP  RH WIND       PRES   REMARKS
N CHARLESTON   MOSUNNY   84  61  45 W12G22    29.61F
6HR MIN TEMP:  67; 6HR MAX TEMP:  85;

WATERFRONT PRK   N/A     84 N/A N/A W10G18      N/A
MOUNT PLEASANT FAIR      84  64  51 MISG      29.60F
PINOPOLIS      NOT AVBL
MONCKS CORNER  FAIR      84  61  45 NW5       29.60F
SUMMERVILLE    FAIR      84  64  51 W12G18    29.61F
BEAUFORT MCAS  SUNNY     84  64  50 W13       29.64F
6HR MIN TEMP:  68; 6HR MAX TEMP:  85;

BEAUFORT ARPT  FAIR      84  68  58 SW14      29.64F
HILTON HEAD IS SUNNY     84  66  54 W10G21    29.66F
WALTERBORO     NOT AVBL
ALLENDALE      FAIR      84  63  48 VRB6G14   29.62F

...SOUTHERN MIDLANDS AND PEE DEE...

CITY           SKY/WX    TMP DP  RH WIND       PRES   REMARKS
GEORGETOWN     NOT AVBL
KINGSTREE      NOT AVBL
ORANGEBURG     MOSUNNY   84  63  49 W14G25    29.61F
6HR MIN TEMP:  67; 6HR MAX TEMP:  84;

BARNWELL       FAIR      84  64  51 W7G16     29.63F
AIKEN          FAIR      81  59  47 SW12G21   29.66F
MANNING        MOCLDY    81  61  50 W7        29.59F
COLUMBIA       MOSUNNY   86  59  39 W20       29.59F
6HR MIN TEMP:  68; 6HR MAX TEMP:  86;

SUMTER         MOSUNNY   73  62  68 NE13      29.60S
6HR MIN TEMP:  67; 6HR MAX TEMP:  80;

FLORENCE       CLOUDY    61  53  75 NE10      29.66R
6HR MIN TEMP:  58; 6HR MAX TEMP:  68;

MYRTLE BEACH   MOSUNNY   72  61  68 N15       29.64R
N MYRTLE BEACH SUNNY     69  59  70 N9        29.63S
6HR MIN TEMP:  66; 6HR MAX TEMP:  74;


$$

GAZ063-065-086>088-099>101-113>116-118-119-134>141-150-261900-
...SOUTHEAST GEORGIA...

CITY           SKY/WX    TMP DP  RH WIND       PRES   REMARKS
SAVANNAH ARPT  MOSUNNY   85  62  46 W15G24    29.65F
6HR MIN TEMP:  67; 6HR MAX TEMP:  85;

HUNTER AAF     MOSUNNY   85  68  56 W13       29.64F
6HR MIN TEMP:  68; 6HR MAX TEMP:  85;

FORT STEWART   MOSUNNY   84  66  53 W17G24    29.65F
6HR MIN TEMP:  68; 6HR MAX TEMP:  84;

STATESBORO       N/A     82  66  58 SW15      29.67F
SYLVANIA       CLEAR     82  68  63 W10       29.66F
CLAXTON        FAIR      82  66  57 W12G20    29.67F

...CSRA...CENTRAL AND FAR SOUTHEAST GEORGIA...

CITY           SKY/WX    TMP DP  RH WIND       PRES   REMARKS
THOMSON        MOSUNNY   83  67  58 W3G18     29.69S
AUGUSTA-BUSH   SUNNY     83  62  49 W10       29.63F
6HR MIN TEMP:  66; 6HR MAX TEMP:  83;

AUGUSTA-DANIEL SUNNY     82  60  47 W9G21     29.64F
SWAINSBORO     NOT AVBL
VIDALIA        SUNNY     82  63  51 SW10      29.69F
EASTMAN        FAIR      83  65  55 W10       29.72F
HAZLEHURST     FAIR      85  62  45 W8        29.69F
ALMA           MOSUNNY   84  64  50 W12G17    29.70F
6HR MIN TEMP:  67; 6HR MAX TEMP:  85;

WAYCROSS       MOSUNNY   89  67  47 W12G17    29.70F HX  92
JESUP          FAIR      88  64  45 NW16      29.69F
BAXLEY         FAIR      86  63  45 W13G20    29.69F
BRUNSWICK      SUNNY     88  59  37 W12G22    29.69F
SAINT SIMONS   SUNNY     86  61  42 W12G21    29.69F
6HR MIN TEMP:  71; 6HR MAX TEMP:  86;


$$

SCZ027-028-034-036>038-045-046-048>050-GAZ119-141-261900-
...LAKE AND SUPPLEMENTAL COASTAL OBSERVATIONS...

STATION/POSITION TIME  TEMP    WIND        PRES    WAVE   SWELL
                       AIR SEA DIR/SP/G            HT/PER HT/PER/DIR
                 (UTC) (F)     (DEG/KT/KT) (MB)    (FT/S) (FT/S/D)
UPR LAKE MARION  NOT AVBL
WINYAH BAY       NOT AVBL
LAKE MURRAY      1700   78     270/ 14/ 17 1002.0F
ACE BASIN NERRS  NOT AVBL
FORT PULASKI     1700   80 70  250/  9/ 14 1005.1F
SAPELO ISLAND    1700   83     290/ 12     1005.0F

$$

ANZ835-935-AMZ111-154-330-350-352-354-370-450-454-472-261900-
...C-MAN AND BUOY OBSERVATIONS...

STATION/POSITION TIME  TEMP    WIND        PRES    WAVE   SWELL
                       AIR SEA DIR/SP/G            HT/PER HT/PER/DIR
                 (UTC) (F)     (DEG/KT/KT) (MB)    (FT/S) (FT/S/D)
BUOY 41004       1750   72 72  250/ 17/ 19 1002.5F   5/ 5   2/12
BUOY 41008       1750   73 71  200/  8/ 10 1005.5F   2/ 5   2/160/ 5
FOLLY BEACH CMAN 1700   80     250/ 10/ 13 1003.3F
CAPERS NEARSHORE 1708   72     220/ 10/ 12 1003.2F
FRIPP NEARSHORE  NOT AVBL


STATION/POSITION TIME  TEMP    WIND        PRES    WAVE   SWELL
                       AIR SEA DIR/SP/G            HT/PER HT/PER/DIR
                 (UTC) (F)     (DEG/KT/KT) (MB)    (FT/S) (FT/S/D)
5E ST. MARYS GA  1721      71                N/A     1/13
FRYING PAN BUOY  1750   65 72   20/ 12/ 14 1003.6R   4/ 6   3/230/ 6
BUOY 41025       1750   57 76  360/ 23/ 29 1001.6R   6/ 8   2/320/15
CAPE LOOKOUT NC  1700   56     360/ 16/ 18 1003.2S
BUOY 41002       1750   72 71  260/ 14/ 17 1002.2F   7/ 8   5/220/ 8
BUOY 41010       1720   79 79  260/ 17/ 21 1007.7F
ST AUGUSTINE FL  1800   86 68  270/ 10/ 14 1007.0F


$$



USA.gov is the U.S. government's official web portal to all federal, state and local government web resources and services.